When you browse on this site, cookies collect data to enhance your experience and personalize the content and advertising you see.
Visit our Privacy Policy to learn more. By continuing to use the site, you agree to this use of cookies and data.
  • In Portugal
  • List of Countries
  • For 7 days
  • Water Temperature
  • Weather Map
  • Weather Widgets
  • user-avatar
    Login

    Hourly Weather Kutaisi

    Today, 11 December, Wednesday

    Time Temperature Precipitation Wind Pressure Humidity
    00:00 +5°C° 0 mm 3 mps 750 mmHg 54%
    01:00 +5°C° 0 mm 3 mps 750 mmHg 53%
    02:00 +5°C° 0 mm 3 mps 750 mmHg 53%
    03:00 +5°C° 0 mm 3 mps 750 mmHg 51%
    04:00 +5°C° 0 mm 3 mps 750 mmHg 51%
    05:00 +5°C° 0 mm 3 mps 750 mmHg 51%
    06:00 +6°C° 0 mm 2 mps 750 mmHg 51%
    07:00 +6°C° 0 mm 2 mps 750 mmHg 50%
    08:00 +7°C° 0 mm 2 mps 750 mmHg 50%
    09:00 +8°C° 0 mm 2 mps 750 mmHg 49%
    10:00 +10°C° 0 mm 2 mps 750 mmHg 45%
    11:00 +12°C° 0 mm 1 mps 750 mmHg 41%
    12:00 +14°C° 0 mm 1 mps 749 mmHg 38%
    13:00 +14°C° 0 mm 1 mps 749 mmHg 40%
    14:00 +13°C° 0 mm 0 mps 749 mmHg 41%
    15:00 +13°C° 0 mm 0 mps 749 mmHg 43%
    16:00 +12°C° 0 mm 1 mps 749 mmHg 46%
    17:00 +11°C° 0 mm 1 mps 750 mmHg 50%
    18:00 +9°C° 0 mm 2 mps 750 mmHg 53%
    19:00 +8°C° 0 mm 2 mps 750 mmHg 54%
    20:00 +8°C° 0 mm 2 mps 750 mmHg 54%
    21:00 +7°C° 0 mm 2 mps 750 mmHg 55%
    22:00 +7°C° 0 mm 2 mps 750 mmHg 54%
    23:00 +7°C° 0 mm 2 mps 750 mmHg 54%

    Tomorrow, 12 December, Thursday

    Time Temperature Precipitation Wind Pressure Humidity
    00:00 +7°C° 0 mm 3 mps 750 mmHg 54%
    01:00 +7°C° 0 mm 3 mps 750 mmHg 53%
    02:00 +7°C° 0 mm 3 mps 750 mmHg 53%
    03:00 +7°C° 0 mm 3 mps 750 mmHg 52%
    04:00 +7°C° 0 mm 3 mps 750 mmHg 51%
    05:00 +7°C° 0 mm 3 mps 750 mmHg 51%
    06:00 +6°C° 0 mm 4 mps 749 mmHg 50%
    07:00 +6°C° 0 mm 4 mps 749 mmHg 48%
    08:00 +7°C° 0 mm 4 mps 749 mmHg 47%
    09:00 +8°C° 0 mm 4 mps 749 mmHg 46%
    10:00 +9°C° 0 mm 5 mps 748 mmHg 43%
    11:00 +10°C° 0 mm 6 mps 748 mmHg 41%
    12:00 +13°C° 0 mm 6 mps 747 mmHg 38%
    13:00 +13°C° 0 mm 6 mps 747 mmHg 39%
    14:00 +13°C° 0 mm 6 mps 746 mmHg 40%
    15:00 +13°C° 0 mm 6 mps 746 mmHg 41%
    16:00 +11°C° 0 mm 6 mps 746 mmHg 44%
    17:00 +9°C° 0 mm 6 mps 746 mmHg 46%
    18:00 +8°C° 0 mm 6 mps 747 mmHg 49%
    19:00 +8°C° 0 mm 6 mps 747 mmHg 49%
    20:00 +8°C° 0 mm 6 mps 747 mmHg 49%
    21:00 +8°C° 0 mm 6 mps 747 mmHg 50%
    22:00 +7°C° 0 mm 6 mps 746 mmHg 50%
    23:00 +6°C° 0 mm 7 mps 746 mmHg 49%

    Day after tomorrow, 13 December, Friday

    Time Temperature Precipitation Wind Pressure Humidity
    00:00 +6°C° 0 mm 7 mps 746 mmHg 49%
    01:00 +6°C° 0 mm 7 mps 746 mmHg 49%
    02:00 +6°C° 0 mm 7 mps 745 mmHg 49%
    03:00 +6°C° 0 mm 7 mps 745 mmHg 49%
    04:00 +6°C° 0 mm 7 mps 745 mmHg 48%
    05:00 +6°C° 0 mm 7 mps 745 mmHg 48%
    06:00 +6°C° 0 mm 7 mps 745 mmHg 48%
    07:00 +6°C° 0 mm 7 mps 745 mmHg 47%
    08:00 +8°C° 0 mm 7 mps 745 mmHg 46%
    09:00 +8°C° 0 mm 6 mps 745 mmHg 46%
    10:00 +9°C° 0 mm 7 mps 745 mmHg 44%
    11:00 +10°C° 0 mm 7 mps 744 mmHg 42%
    12:00 +12°C° 0 mm 7 mps 744 mmHg 41%
    13:00 +12°C° 0 mm 7 mps 744 mmHg 41%
    14:00 +13°C° 0 mm 6 mps 744 mmHg 42%
    15:00 +13°C° 0 mm 6 mps 744 mmHg 43%
    16:00 +11°C° 0 mm 6 mps 744 mmHg 45%
    17:00 +10°C° 0 mm 5 mps 745 mmHg 47%
    18:00 +9°C° 0 mm 5 mps 745 mmHg 49%
    19:00 +9°C° 0 mm 5 mps 746 mmHg 49%
    20:00 +9°C° 0 mm 5 mps 746 mmHg 50%
    21:00 +9°C° 0 mm 5 mps 746 mmHg 50%
    22:00 +10°C° 0 mm 4 mps 746 mmHg 50%
    23:00 +10°C° 0 mm 4 mps 746 mmHg 50%

    14 December, Saturday

    Time Temperature Precipitation Wind Pressure Humidity
    00:00 +10°C° 0 mm 4 mps 746 mmHg 50%
    01:00 +10°C° 0 mm 4 mps 747 mmHg 50%
    02:00 +10°C° 0 mm 4 mps 747 mmHg 50%
    03:00 +10°C° 0 mm 4 mps 747 mmHg 50%
    04:00 +8°C° 0 mm 4 mps 747 mmHg 51%
    05:00 +8°C° 0 mm 4 mps 747 mmHg 52%
    06:00 +8°C° 0 mm 4 mps 748 mmHg 53%
    07:00 +8°C° 0 mm 5 mps 748 mmHg 52%
    08:00 +9°C° 0 mm 5 mps 748 mmHg 51%
    09:00 +10°C° 0 mm 5 mps 749 mmHg 50%
    10:00 +12°C° 0 mm 5 mps 748 mmHg 47%
    11:00 +14°C° 0 mm 5 mps 748 mmHg 43%
    12:00 +15°C° 0 mm 5 mps 747 mmHg 40%
    13:00 +15°C° 0 mm 5 mps 747 mmHg 40%
    14:00 +15°C° 0 mm 5 mps 747 mmHg 41%
    15:00 +15°C° 0 mm 5 mps 747 mmHg 41%
    16:00 +14°C° 0 mm 5 mps 747 mmHg 44%
    17:00 +13°C° 0 mm 5 mps 748 mmHg 46%
    18:00 +12°C° 0 mm 5 mps 748 mmHg 49%
    19:00 +12°C° 0 mm 5 mps 748 mmHg 49%
    20:00 +10°C° 0 mm 5 mps 749 mmHg 49%
    21:00 +10°C° 0 mm 5 mps 749 mmHg 49%
    22:00 +11°C° 0 mm 4 mps 749 mmHg 49%
    23:00 +11°C° 0 mm 4 mps 749 mmHg 49%

    15 December, Sunday

    Time Temperature Precipitation Wind Pressure Humidity
    00:00 +11°C° 0 mm 4 mps 749 mmHg 49%
    01:00 +10°C° 0 mm 4 mps 749 mmHg 49%
    02:00 +10°C° 0 mm 4 mps 749 mmHg 49%
    03:00 +10°C° 0 mm 3 mps 749 mmHg 50%
    04:00 +10°C° 0 mm 3 mps 750 mmHg 50%
    05:00 +10°C° 0 mm 3 mps 750 mmHg 50%
    06:00 +9°C° 0 mm 2 mps 750 mmHg 51%
    07:00 +10°C° 0 mm 2 mps 750 mmHg 50%
    08:00 +10°C° 0 mm 2 mps 750 mmHg 50%
    09:00 +12°C° 0 mm 2 mps 751 mmHg 50%
    10:00 +13°C° 0 mm 2 mps 750 mmHg 47%
    11:00 +14°C° 0 mm 1 mps 750 mmHg 44%
    12:00 +15°C° 0 mm 1 mps 750 mmHg 42%
    13:00 +15°C° 0 mm 1 mps 750 mmHg 43%
    14:00 +15°C° 0 mm 1 mps 750 mmHg 45%
    15:00 +14°C° 0 mm 0 mps 750 mmHg 47%
    16:00 +14°C° 0 mm 0 mps 751 mmHg 49%
    17:00 +13°C° 0 mm 0 mps 751 mmHg 51%
    18:00 +12°C° 0 mm 0 mps 752 mmHg 54%
    19:00 +13°C° 0 mm 1 mps 752 mmHg 55%
    20:00 +13°C° 0 mm 1 mps 753 mmHg 56%
    21:00 +13°C° 0 mm 1 mps 753 mmHg 58%
    22:00 +12°C° 0 mm 1 mps 753 mmHg 60%
    23:00 +12°C° 0 mm 1 mps 753 mmHg 61%

    16 December, Monday

    Time Temperature Precipitation Wind Pressure Humidity
    00:00 +12°C° 0 mm 1 mps 753 mmHg 63%
    01:00 +12°C° 0.1 mm 1 mps 753 mmHg 65%
    02:00 +12°C° 0.1 mm 1 mps 754 mmHg 68%
    03:00 +11°C° 0.1 mm 1 mps 754 mmHg 71%
    04:00 +11°C° 0.1 mm 1 mps 754 mmHg 70%
    05:00 +11°C° 0.1 mm 1 mps 754 mmHg 70%
    06:00 +10°C° 0.1 mm 2 mps 754 mmHg 69%
    07:00 +11°C° 0 mm 1 mps 754 mmHg 68%
    08:00 +11°C° 0 mm 1 mps 755 mmHg 66%
    09:00 +12°C° 0 mm 1 mps 755 mmHg 65%
    10:00 +13°C° 0 mm 1 mps 755 mmHg 63%
    11:00 +13°C° 0 mm 1 mps 755 mmHg 61%
    12:00 +14°C° 0 mm 1 mps 754 mmHg 59%
    13:00 +14°C° 0 mm 1 mps 754 mmHg 61%
    14:00 +14°C° 0 mm 1 mps 754 mmHg 62%
    15:00 +14°C° 0 mm 1 mps 754 mmHg 63%
    16:00 +12°C° 0 mm 0 mps 755 mmHg 67%
    17:00 +11°C° 0 mm 0 mps 755 mmHg 72%
    18:00 +10°C° 0 mm 0 mps 756 mmHg 76%
    19:00 +11°C° 0 mm 1 mps 756 mmHg 76%
    20:00 +10°C° 0 mm 1 mps 756 mmHg 76%
    21:00 +10°C° 0 mm 1 mps 756 mmHg 76%
    22:00 +10°C° 0 mm 1 mps 756 mmHg 75%
    23:00 +10°C° 0 mm 1 mps 756 mmHg 74%
    Show more